Fort Pierce, FL

6:58 AM EST on February 20, 2017 (GMT -0500)
Saint Lucie County International

Weather History for KFPR - March, 2013

Change the Weather History Date:

Saturday, March 9, 2013

  Actual Average Record
Temperature  
Mean Temperature 58 °F -  
Max Temperature 72 °F 76 °F 88 °F (1950)
Min Temperature 44 °F 56 °F 36 °F (1965)
Degree Days  
Heating Degree Days 7    
Growing Degree Days 8 (Base 50)    
Moisture  
Dew Point 48 °F    
Average Humidity 69    
Maximum Humidity 93    
Minimum Humidity 46    
Precipitation  
Precipitation 0.00 in - - ()
Sea Level Pressure  
Sea Level Pressure 30.18 in    
Wind  
Wind Speed 3 mph (North)    
Max Wind Speed 10 mph    
Max Gust Speed 21 mph    
Visibility 8 miles    
Events      
Averages and records for this station are not official NWS values.
T = Trace of Precipitation, MM = Missing Value Source: NWS Daily Summary

Daily Weather History Graph

Daily Weather History Graph

Search for Another Location

Airport or City:

Trip Planner

Search our weather history database for the weather conditions in past years. The results will help you decide how hot, cold, wet, or windy it might be!

Date:

Astronomy

Mar. 09, 2013 Rise Set
Actual Time 6:37 AM EST 6:26 PM EST
Civil Twilight 6:13 AM EST 6:50 PM EST
Nautical Twilight 5:46 AM EST 7:17 PM EST
Astronomical Twilight 5:19 AM EST 7:44 PM EST
Moon 4:51 AM EST (3/9) 4:34 PM EST (3/9)
Length of Visible Light 12h 36m
Length of Day
11h 49m
Waning Crescent, 5% of the Moon is Illuminated
Mar 9
Waning Crescent
Mar 11
New
Mar 19
First Quarter
Mar 27
Full
Apr 3
Last Quarter

Hourly Weather History & Observations

Time (EST) Temp. Windchill Dew Point Humidity Pressure Visibility Wind Dir Wind Speed Gust Speed Precip Events Conditions
12:53 AM 46.9 °F - 44.1 °F 90% 30.19 in 6.0 mi Calm Calm - N/A   Clear
1:53 AM 46.0 °F - 44.1 °F 93% 30.16 in 6.0 mi Calm Calm - N/A   Clear
2:53 AM 44.1 °F 41.5 °F 41.0 °F 89% 30.14 in 7.0 mi West 4.6 mph - N/A   Clear
3:53 AM 46.0 °F 44.8 °F 42.1 °F 86% 30.13 in 7.0 mi WNW 3.5 mph - N/A   Clear
4:53 AM 44.1 °F 42.5 °F 42.1 °F 93% 30.14 in 5.0 mi WNW 3.5 mph - N/A   Clear
5:53 AM 44.1 °F 42.5 °F 42.1 °F 93% 30.16 in 4.0 mi West 3.5 mph - N/A   Clear
6:44 AM 44.6 °F 43.1 °F 42.8 °F 93% 30.17 in 2.5 mi WNW 3.5 mph - N/A   Clear
6:53 AM 45.0 °F 43.5 °F 42.1 °F 90% 30.17 in 2.5 mi WNW 3.5 mph - N/A   Clear
7:00 AM 46.4 °F 45.2 °F 42.8 °F 87% 30.18 in 7.0 mi West 3.5 mph - N/A   Partly Cloudy
7:53 AM 54.0 °F - 51.1 °F 90% 30.19 in 7.0 mi WNW 3.5 mph - N/A   Partly Cloudy
8:53 AM 66.9 °F - 54.0 °F 63% 30.21 in 10.0 mi NNE 3.5 mph - N/A   Partly Cloudy
9:53 AM 72.0 °F - 53.1 °F 51% 30.20 in 10.0 mi Variable 6.9 mph - N/A   Partly Cloudy
10:53 AM 71.1 °F - 52.0 °F 51% 30.22 in 10.0 mi NE 5.8 mph 20.7 mph N/A   Scattered Clouds
11:53 AM 71.1 °F - 51.1 °F 49% 30.22 in 10.0 mi Variable 4.6 mph - N/A   Clear
12:53 PM 72.0 °F - 50.0 °F 46% 30.20 in 10.0 mi NE 6.9 mph 16.1 mph N/A   Clear
1:53 PM 71.1 °F - 50.0 °F 47% 30.18 in 10.0 mi NE 8.1 mph - N/A   Scattered Clouds
2:53 PM 70.0 °F - 50.0 °F 49% 30.17 in 10.0 mi ENE 10.4 mph 16.1 mph N/A   Clear
3:53 PM 69.1 °F - 50.0 °F 51% 30.16 in 10.0 mi NNE 8.1 mph - N/A   Clear
4:53 PM 68.0 °F - 51.1 °F 55% 30.17 in 10.0 mi NNE 6.9 mph - N/A   Clear
5:53 PM 66.9 °F - 50.0 °F 54% 30.19 in 10.0 mi NE 3.5 mph - N/A   Partly Cloudy
6:53 PM 64.9 °F - 50.0 °F 58% 30.19 in 10.0 mi NE 4.6 mph - N/A   Clear
7:53 PM 64.9 °F - 50.0 °F 58% 30.18 in 10.0 mi NE 4.6 mph - N/A   Clear
8:53 PM 64.0 °F - 51.1 °F 63% 30.20 in 10.0 mi NE 3.5 mph - N/A   Clear
9:53 PM 63.0 °F - 51.1 °F 65% 30.20 in 10.0 mi Calm Calm - N/A   Scattered Clouds
10:53 PM 64.0 °F - 51.1 °F 63% 30.19 in 10.0 mi Calm Calm - N/A   Clear
11:53 PM 55.9 °F - 48.9 °F 77% 30.19 in 10.0 mi Calm Calm - N/A   Mostly Cloudy